�v������,���r���O(���x),�����t���O,���r���O(���x),�����t���O,��1(���x),�����t���O,��2���x),�����t���O,�������x,�����t���O,�C�ۑ�(���x),�����t���O,�C�ۑ�(���x),�����t���O
4/1/2004 0:00,21.5,0,79.8,0,21,0,20.8,0,14.4,0,11,0,62.8,0
4/1/2004 0:15,21.4,0,79.1,0,20.9,0,20.7,0,14.5,0,11,0,61.8,0
4/1/2004 0:30,21.2,0,77.5,0,20.9,0,20.7,0,14.1,0,10.9,0,60.8,0
4/1/2004 0:45,21.1,0,76.4,0,20.8,0,20.6,0,14.1,0,10.9,0,59.8,0
4/1/2004 1:00,20.9,0,75.7,0,20.8,0,20.5,0,14.1,0,10.9,0,58.8,0
4/1/2004 1:15,20.8,0,75.1,0,20.8,0,20.4,0,14.1,0,10.9,0,59.3,0
4/1/2004 1:30,20.6,0,74.6,0,20.8,0,20.4,0,14.2,0,10.9,0,59.8,0
4/1/2004 1:45,20.4,0,74.3,0,20.8,0,20.3,0,14.3,0,10.9,0,60.3,0
4/1/2004 2:00,20.2,0,74.1,0,20.8,0,20.2,0,14.3,0,10.9,0,60.8,0
4/1/2004 2:15,20.1,0,74,0,20.8,0,20.1,0,14.4,0,10.9,0,61,0
4/1/2004 2:30,19.9,0,73.6,0,20.9,0,20,0,14.4,0,10.8,0,61.3,0
4/1/2004 2:45,19.8,0,73.5,0,20.9,0,19.9,0,14.5,0,10.8,0,61.5,0
4/1/2004 3:00,19.7,0,73.4,0,20.8,0,19.8,0,14.5,0,10.8,0,61.8,0
4/1/2004 3:15,19.5,0,73,0,20.8,0,19.7,0,14.6,0,10.7,0,56.3,0
4/1/2004 3:30,19.4,0,72.9,0,20.7,0,19.7,0,14.6,0,10.7,0,50.8,0
4/1/2004 3:45,19.3,0,72.9,0,20.6,0,19.6,0,14.7,0,10.6,0,45.3,0
4/1/2004 4:00,19.1,0,72.6,0,20.5,0,19.5,0,14.7,0,10.6,0,39.8,0
4/1/2004 4:15,19,0,72.7,0,20.5,0,19.4,0,14.8,0,10.4,0,41.3,0
4/1/2004 4:30,18.8,0,72.6,0,20.4,0,19.3,0,14.8,0,10.2,0,42.8,0
4/1/2004 4:45,18.7,0,72.3,0,20.3,0,19.2,0,14.9,0,10,0,44.3,0
4/1/2004 5:00,18.6,0,72.5,0,20.2,0,19.1,0,14.9,0,9.8,0,45.8,0
4/1/2004 5:15,18.4,0,72.2,0,20.1,0,19,0,14.6,0,9.8,0,44.5,0
4/1/2004 5:30,18.3,0,72.3,0,20,0,18.9,0,14.1,0,9.8,0,43.3,0
4/1/2004 5:45,18.1,0,72.3,0,19.9,0,18.9,0,13.7,0,9.8,0,42,0
4/1/2004 6:00,18,0,71.8,0,19.8,0,18.8,0,13.7,0,9.8,0,40.8,0
4/1/2004 6:15,17.9,0,72.1,0,19.8,0,18.7,0,13.8,0,9.9,0,40.8,0
4/1/2004 6:30,17.8,0,71.5,0,19.7,0,18.6,0,13.9,0,9.9,0,40.8,0
4/1/2004 6:45,18.9,0,73.9,0,19.7,0,18.6,0,13.7,0,10,0,40.8,0
4/1/2004 7:00,18.8,0,74.3,0,19.7,0,18.6,0,13.5,0,10.1,0,40.8,0
4/1/2004 7:15,19.3,0,74.9,0,19.6,0,18.6,0,13.5,0,10.4,0,40.5,0
4/1/2004 7:30,19.3,0,79.3,0,19.6,0,18.6,0,13.6,0,10.8,0,40.3,0
4/1/2004 7:45,19.6,0,75.7,0,19.7,0,18.7,0,13.5,0,11.1,0,40,0
4/1/2004 8:00,19.8,0,73.7,0,19.8,0,18.8,0,13.5,0,11.5,0,39.8,0
4/1/2004 8:15,20.2,0,73.2,0,20.1,0,19,0,13.6,0,12,0,39,0
4/1/2004 8:30,20.5,0,70.5,0,20.3,0,19.1,0,13.6,0,12.4,0,38.3,0
4/1/2004 8:45,20.9,0,70.6,0,20.5,0,19.3,0,13.5,0,12.9,0,37.5,0
4/1/2004 9:00,21,0,69.3,0,20.7,0,19.5,0,13.6,0,13.4,0,36.8,0
4/1/2004 9:15,21.1,0,69,0,20.8,0,19.7,0,13.5,0,13.6,0,35.3,0
4/1/2004 9:30,20.8,0,61.9,0,21,0,19.8,0,13.4,0,13.8,0,33.8,0
4/1/2004 9:45,19.9,0,49.1,0,21.2,0,20.1,0,13.5,0,14,0,32.3,0
4/1/2004 10:00,19.7,0,54.7,0,21.3,0,20.2,0,13.6,0,14.2,0,30.8,0
4/1/2004 10:15,19.8,0,56.4,0,21.4,0,20.4,0,13.6,0,14.6,0,31,0
4/1/2004 10:30,19.9,0,57.1,0,21.5,0,20.6,0,13.7,0,15,0,31.3,0
4/1/2004 10:45,19.6,0,47,0,21.6,0,20.8,0,13.7,0,15.4,0,31.5,0
4/1/2004 11:00,20.2,0,45.6,0,21.7,0,21,0,13.8,0,15.8,0,31.8,0
4/1/2004 11:15,20.6,0,47.7,0,21.8,0,21.2,0,13.8,0,15.9,0,31,0
4/1/2004 11:30,20.9,0,49.2,0,21.8,0,21.4,0,13.8,0,15.9,0,30.3,0
4/1/2004 11:45,21.2,0,49.3,0,21.8,0,21.5,0,13.9,0,16,0,29.5,0
4/1/2004 12:00,21.3,0,50.9,0,21.8,0,21.7,0,13.9,0,16.1,0,28.8,0
4/1/2004 12:15,21.1,0,43.6,0,21.8,0,21.8,0,14,0,16.2,0,29.8,0
4/1/2004 12:30,20.8,0,45.2,0,21.8,0,21.9,0,14,0,16.3,0,30.8,0
4/1/2004 12:45,21.8,0,47.4,0,21.8,0,22,0,14.1,0,16.5,0,31.8,0
4/1/2004 13:00,22.5,0,48.8,0,21.8,0,22,0,14.1,0,16.6,0,32.8,0
4/1/2004 13:15,22.9,0,50.6,0,21.8,0,22,0,14.1,0,16.6,0,33.3,0
4/1/2004 13:30,22.6,0,49.4,0,21.8,0,22,0,13.9,0,16.6,0,33.8,0
4/1/2004 13:45,23.1,0,50.9,0,21.8,0,22,0,14,0,16.6,0,34.3,0
4/1/2004 14:00,22.7,0,47.1,0,21.8,0,22,0,14,0,16.6,0,34.8,0
4/1/2004 14:15,23.1,0,49.2,0,21.8,0,22,0,13.9,0,16.5,0,35,0
4/1/2004 14:30,23.5,0,52,0,21.8,0,22,0,14,0,16.4,0,35.3,0
4/1/2004 14:45,23.7,0,53.3,0,21.9,0,22,0,14.1,0,16.3,0,35.5,0
4/1/2004 15:00,23.9,0,54.2,0,21.9,0,22.1,0,14.1,0,16.2,0,35.8,0
4/1/2004 15:15,23.9,0,54,0,21.9,0,22.1,0,14.2,0,16.5,0,39.5,0
4/1/2004 15:30,23,0,52.3,0,21.9,0,22.1,0,14.2,0,16.8,0,43.3,0
4/1/2004 15:45,22.4,0,53.5,0,22,0,22.1,0,13.8,0,17.1,0,47,0
4/1/2004 16:00,21.9,0,51.8,0,22.1,0,22.1,0,13.9,0,17.4,0,50.8,0
4/1/2004 16:15,21.8,0,53.9,0,22.1,0,22.1,0,13.9,0,17,0,53.3,0
4/1/2004 16:30,21.7,0,54.7,0,22.1,0,22.2,0,14,0,16.6,0,55.8,0
4/1/2004 16:45,21.5,0,54.9,0,22.2,0,22.2,0,13.8,0,16.2,0,58.3,0
4/1/2004 17:00,21.5,0,55.4,0,22.2,0,22.2,0,13.8,0,15.8,0,60.8,0
4/1/2004 17:15,21.7,0,55.1,0,22.2,0,22.2,0,13.9,0,15.4,0,61.8,0
4/1/2004 17:30,21.5,0,54.9,0,22.1,0,22.1,0,13.5,0,15.1,0,62.8,0
4/1/2004 17:45,21.2,0,53.9,0,22,0,22.1,0,13.6,0,14.7,0,63.8,0
4/1/2004 18:00,21.4,0,56,0,22,0,22,0,13.7,0,14.4,0,64.8,0
4/1/2004 18:15,21.2,0,58.2,0,21.9,0,22,0,13.7,0,14.2,0,66.1,0
4/1/2004 18:30,21.7,0,67.8,0,21.8,0,21.9,0,13.9,0,14.1,0,67.3,0
4/1/2004 18:45,21.4,0,65.8,0,21.7,0,21.8,0,13.8,0,13.9,0,68.6,0
4/1/2004 19:00,21.2,0,68,0,21.7,0,21.8,0,13.9,0,13.8,0,69.8,0
4/1/2004 19:15,21.3,0,67.5,0,21.7,0,21.8,0,13.9,0,13.9,0,71.1,0
4/1/2004 19:30,21.7,0,71.9,0,21.6,0,21.7,0,14,0,14,0,72.3,0
4/1/2004 19:45,21.8,0,73.4,0,21.5,0,21.7,0,14.1,0,14.1,0,73.6,0
4/1/2004 20:00,21.9,0,73.8,0,21.4,0,21.6,0,14.1,0,14.2,0,74.8,0
4/1/2004 20:15,21.9,0,71.3,0,21.3,0,21.5,0,14.2,0,14.4,0,75.3,0
4/1/2004 20:30,21.9,0,71.4,0,21.2,0,21.4,0,14,0,14.6,0,75.8,0
4/1/2004 20:45,21.9,0,71.6,0,21.1,0,21.3,0,13.9,0,14.8,0,76.3,0
4/1/2004 21:00,21.9,0,72.3,0,21.1,0,21.3,0,14,0,15,0,76.8,0
4/1/2004 21:15,21.5,0,70.6,0,21,0,21.2,0,14.1,0,15,0,77.3,0
4/1/2004 21:30,21.7,0,70.7,0,21,0,21.2,0,14.2,0,15,0,77.8,0
4/1/2004 21:45,21.7,0,71,0,21,0,21.1,0,14.2,0,15.1,0,78.3,0
4/1/2004 22:00,21.7,0,73,0,20.9,0,21.1,0,14.3,0,15.1,0,78.8,0
4/1/2004 22:15,21.6,0,73.1,0,20.9,0,21,0,14.4,0,15.1,0,79.6,0
4/1/2004 22:30,21.6,0,73.7,0,20.9,0,21,0,14.4,0,15.2,0,80.3,0
4/1/2004 22:45,21.7,0,74,0,20.9,0,20.9,0,14.7,0,15.2,0,81.1,0
4/1/2004 23:00,21.7,0,73.7,0,20.9,0,20.9,0,14.5,0,15.3,0,81.8,0
4/1/2004 23:15,21.6,0,73.9,0,20.8,0,20.9,0,14.5,0,15.4,0,81.6,0
4/1/2004 23:30,21.5,0,74,0,20.8,0,20.8,0,14.6,0,15.5,0,81.3,0
4/1/2004 23:45,21.5,0,73.4,0,20.7,0,20.8,0,14.6,0,15.6,0,81.1,0
4/2/2004 0:00,21.5,0,74.9,0,20.7,0,20.7,0,14.7,0,15.7,0,80.8,0
4/2/2004 0:15,21.4,0,74.8,0,20.7,0,20.7,0,14.7,0,15.5,0,83.1,0
4/2/2004 0:30,21.4,0,75.5,0,20.6,0,20.6,0,14.8,0,15.3,0,85.3,0
4/2/2004 0:45,21.3,0,75.4,0,20.6,0,20.6,0,14.9,0,15.1,0,87.6,0
4/2/2004 1:00,21.3,0,74.9,0,20.6,0,20.5,0,14.9,0,14.9,0,89.8,0
4/2/2004 1:15,21.2,0,75.3,0,20.6,0,20.5,0,15,0,15,0,89.8,0
4/2/2004 1:30,21.1,0,75.4,0,20.5,0,20.5,0,15,0,15.1,0,89.8,0
4/2/2004 1:45,21.1,0,75.4,0,20.5,0,20.4,0,15.1,0,15.2,0,89.8,0
4/2/2004 2:00,21.1,0,74.7,0,20.5,0,20.4,0,14.3,0,15.3,0,89.8,0
4/2/2004 2:15,21,0,74,0,20.5,0,20.3,0,14.4,0,15.2,0,90.3,0
4/2/2004 2:30,20.9,0,73.4,0,20.5,0,20.3,0,14.5,0,15.2,0,90.8,0
4/2/2004 2:45,20.8,0,73.2,0,20.6,0,20.2,0,14.6,0,15.1,0,91.3,0
4/2/2004 3:00,20.7,0,73,0,20.6,0,20.2,0,14.8,0,15.1,0,91.8,0
4/2/2004 3:15,20.6,0,72.6,0,20.7,0,20.1,0,14.8,0,14.7,0,92.6,0
4/2/2004 3:30,20.5,0,72.5,0,20.7,0,20.1,0,14.9,0,14.3,0,93.3,0
4/2/2004 3:45,20.4,0,72.4,0,20.7,0,20.1,0,14.9,0,13.9,0,94.1,0
4/2/2004 4:00,20.3,0,72.2,0,20.7,0,20,0,14.3,0,13.5,0,94.8,0
4/2/2004 4:15,20.1,0,72.1,0,20.8,0,20,0,14.4,0,13.5,0,94.8,0
4/2/2004 4:30,20,0,72.1,0,20.7,0,19.9,0,14.4,0,13.5,0,94.8,0
4/2/2004 4:45,19.9,0,71.9,0,20.7,0,19.9,0,14.5,0,13.5,0,94.8,0
4/2/2004 5:00,19.8,0,72,0,20.7,0,19.8,0,14.6,0,13.5,0,94.8,0
4/2/2004 5:15,19.7,0,72,0,20.7,0,19.8,0,14.7,0,13.5,0,94.6,0
4/2/2004 5:30,19.6,0,71.9,0,20.6,0,19.7,0,14.7,0,13.5,0,94.3,0
4/2/2004 5:45,19.5,0,71.9,0,20.6,0,19.7,0,14.8,0,13.6,0,94.1,0
4/2/2004 6:00,19.4,0,71.9,0,20.5,0,19.6,0,14.5,0,13.6,0,93.8,0
4/2/2004 6:15,19.3,0,71.9,0,20.5,0,19.6,0,14.6,0,13.5,0,93.3,0
4/2/2004 6:30,19.2,0,71.9,0,20.4,0,19.5,0,14.6,0,13.4,0,92.8,0
4/2/2004 6:45,19.1,0,71.9,0,20.4,0,19.5,0,14.7,0,13.4,0,92.3,0
4/2/2004 7:00,19.5,0,72.3,0,20.3,0,19.4,0,14.7,0,13.3,0,91.8,0
4/2/2004 7:15,19.8,0,73.6,0,20.2,0,19.4,0,14.2,0,13.7,0,89.6,0
4/2/2004 7:30,20.6,0,73.9,0,20.1,0,19.4,0,14.1,0,14,0,87.3,0
4/2/2004 7:45,21,0,75,0,19.9,0,19.4,0,14.2,0,14.4,0,85.1,0
4/2/2004 8:00,21.5,0,74.4,0,19.8,0,19.4,0,14.2,0,14.8,0,82.8,0
4/2/2004 8:15,21.8,0,74.5,0,19.8,0,19.4,0,14.2,0,15,0,81.8,0
4/2/2004 8:30,21.2,0,71.4,0,19.7,0,19.4,0,14.2,0,15.2,0,80.8,0
4/2/2004 8:45,20.6,0,72.6,0,19.8,0,19.4,0,14.3,0,15.5,0,79.8,0
4/2/2004 9:00,20.4,0,69.7,0,19.9,0,19.5,0,14.3,0,15.7,0,78.8,0
4/2/2004 9:15,20.5,0,70.1,0,19.9,0,19.6,0,14.2,0,15.5,0,79.6,0
4/2/2004 9:30,20.6,0,70.2,0,19.8,0,19.6,0,14.1,0,15.3,0,80.3,0
4/2/2004 9:45,20.7,0,70.8,0,19.9,0,19.6,0,14.2,0,15.2,0,81.1,0
4/2/2004 10:00,20.5,0,71.2,0,20,0,19.6,0,14.2,0,15,0,81.8,0
4/2/2004 10:15,20.5,0,70.7,0,20,0,19.6,0,14.3,0,15.2,0,82.6,0
4/2/2004 10:30,20.4,0,71,0,19.9,0,19.5,0,13.9,0,15.4,0,83.3,0
4/2/2004 10:45,20.4,0,71.3,0,19.8,0,19.5,0,14,0,15.6,0,84.1,0
4/2/2004 11:00,19.8,0,70.2,0,19.8,0,19.4,0,14.1,0,15.8,0,84.8,0
4/2/2004 11:15,19.9,0,71.2,0,19.7,0,19.4,0,14.2,0,16.1,0,85.8,0
4/2/2004 11:30,19.9,0,73,0,19.7,0,19.4,0,14.1,0,16.4,0,86.8,0
4/2/2004 11:45,20,0,72.8,0,19.7,0,19.3,0,14.1,0,16.7,0,87.8,0
4/2/2004 12:00,20,0,72.7,0,19.6,0,19.3,0,14.2,0,17,0,88.8,0
4/2/2004 12:15,20.1,0,72.3,0,19.6,0,19.3,0,14.1,0,17.4,0,87.8,0
4/2/2004 12:30,20.3,0,71.9,0,19.7,0,19.2,0,14.2,0,17.8,0,86.8,0
4/2/2004 12:45,20.4,0,72.6,0,19.7,0,19.2,0,13.9,0,18.3,0,85.8,0
4/2/2004 13:00,20.9,0,79.6,0,19.8,0,19.2,0,14,0,18.7,0,84.8,0
4/2/2004 13:15,21.3,0,80.1,0,19.9,0,19.3,0,14.1,0,19.1,0,82.8,0
4/2/2004 13:30,21.5,0,78.4,0,20,0,19.3,0,14.1,0,19.6,0,80.8,0
4/2/2004 13:45,21.2,0,75.4,0,20.1,0,19.3,0,14.1,0,20,0,78.8,0
4/2/2004 14:00,21.7,0,74.5,0,20.2,0,19.4,0,14.2,0,20.5,0,76.8,0
4/2/2004 14:15,22,0,74.1,0,20.2,0,19.5,0,14,0,20.5,0,73.8,0
4/2/2004 14:30,22.2,0,74.6,0,20.3,0,19.5,0,14.1,0,20.5,0,70.8,0
4/2/2004 14:45,22.4,0,74.3,0,20.4,0,19.6,0,14.1,0,20.6,0,67.8,0
4/2/2004 15:00,22.4,0,74.2,0,20.4,0,19.6,0,14.3,0,20.6,0,64.8,0
4/2/2004 15:15,22.5,0,74,0,20.5,0,19.7,0,14.2,0,20.5,0,61.1,0
4/2/2004 15:30,22.4,0,74.3,0,20.6,0,19.8,0,14.2,0,20.4,0,57.3,0
4/2/2004 15:45,22.3,0,72.8,0,20.7,0,19.8,0,14.2,0,20.3,0,53.6,0
4/2/2004 16:00,22.1,0,69.5,0,20.8,0,19.9,0,14,0,20.2,0,49.8,0
4/2/2004 16:15,22.3,0,68.3,0,21,0,20,0,14.1,0,19.8,0,51.3,0
4/2/2004 16:30,22,0,69.7,0,21.1,0,20,0,14.2,0,19.4,0,52.8,0
4/2/2004 16:45,21.8,0,70.1,0,21.2,0,20.1,0,14.2,0,19.1,0,54.3,0
4/2/2004 17:00,21.7,0,70.1,0,21.3,0,20.1,0,14.3,0,18.7,0,55.8,0
4/2/2004 17:15,21.9,0,70.7,0,21.3,0,20.2,0,14.4,0,18.2,0,58.8,0
4/2/2004 17:30,22.1,0,70.7,0,21.4,0,20.2,0,14.5,0,17.7,0,61.8,0
4/2/2004 17:45,22.1,0,71.1,0,21.4,0,20.2,0,14.6,0,17.3,0,64.8,0
4/2/2004 18:00,21.9,0,70.5,0,21.4,0,20.2,0,14.6,0,16.8,0,67.8,0
4/2/2004 18:15,22.2,0,75.5,0,21.3,0,20.3,0,14.3,0,16.7,0,68.1,0
4/2/2004 18:30,22.3,0,74.1,0,21.3,0,20.3,0,14.2,0,16.5,0,68.3,0
4/2/2004 18:45,22.1,0,61.3,0,21.3,0,20.3,0,14.3,0,16.4,0,68.6,0
4/2/2004 19:00,21.9,0,66,0,21.2,0,20.3,0,14.4,0,16.3,0,68.8,0
4/2/2004 19:15,21.7,0,64.6,0,21.1,0,20.3,0,14.3,0,16.5,0,67.3,0
4/2/2004 19:30,21.9,0,67,0,21.1,0,20.3,0,14.4,0,16.7,0,65.8,0
4/2/2004 19:45,21.9,0,68.5,0,21,0,20.2,0,14.4,0,16.9,0,64.3,0
4/2/2004 20:00,22,0,69.9,0,20.9,0,20.2,0,14.5,0,17.1,0,62.8,0
4/2/2004 20:15,22.1,0,70.8,0,20.8,0,20.2,0,14.5,0,17.3,0,52.3,0
4/2/2004 20:30,23.2,0,71.3,0,20.8,0,20.1,0,14.6,0,17.4,0,41.8,0
4/2/2004 20:45,23.1,0,67,0,20.7,0,20.1,0,14.7,0,17.6,0,31.3,0
4/2/2004 21:00,22.6,0,71.2,0,20.7,0,20,0,14.3,0,17.8,0,20.8,0
4/2/2004 21:15,22.5,0,73.2,0,20.7,0,20,0,14.4,0,17.4,0,20.8,0
4/2/2004 21:30,22.3,0,73.6,0,20.7,0,19.9,0,14.5,0,17.1,0,20.8,0
4/2/2004 21:45,22.3,0,74.2,0,20.7,0,19.9,0,14.6,0,16.7,0,20.8,0
4/2/2004 22:00,22.2,0,74.5,0,20.6,0,19.8,0,14.6,0,16.4,0,20.8,0
4/2/2004 22:15,22.1,0,74.5,0,20.6,0,19.8,0,14.4,0,15.8,0,25,0
4/2/2004 22:30,22,0,74.4,0,20.6,0,19.8,0,14.5,0,15.2,0,29.3,0
4/2/2004 22:45,22,0,74.3,0,20.5,0,19.7,0,14.6,0,14.6,0,33.5,0
4/2/2004 23:00,21.9,0,74.1,0,20.5,0,19.6,0,14.6,0,14,0,37.8,0
4/2/2004 23:15,21.8,0,73.7,0,20.4,0,19.6,0,14.7,0,14.3,0,34.5,0
4/2/2004 23:30,21.8,0,73.4,0,20.4,0,19.5,0,14.3,0,14.5,0,31.3,0
4/2/2004 23:45,21.6,0,70.4,0,20.3,0,19.5,0,14.4,0,14.8,0,28,0
4/3/2004 0:00,21.4,0,68.5,0,20.2,0,19.4,0,14.5,0,15.1,0,24.8,0
4/3/2004 0:15,21.3,0,68.5,0,20.2,0,19.4,0,14.5,0,14.7,0,26,0
4/3/2004 0:30,21.1,0,68,0,20.1,0,19.4,0,14.6,0,14.4,0,27.3,0
4/3/2004 0:45,21.2,0,68.3,0,20.1,0,19.4,0,14.3,0,14,0,28.5,0
4/3/2004 1:00,21.1,0,68.5,0,20,0,19.3,0,14.3,0,13.7,0,29.8,0
4/3/2004 1:15,21,0,67.5,0,19.9,0,19.2,0,14.4,0,13.4,0,30.8,0
4/3/2004 1:30,20.9,0,67.6,0,19.9,0,19.2,0,14.3,0,13.1,0,31.8,0
4/3/2004 1:45,20.9,0,68.4,0,19.9,0,19.1,0,14.3,0,12.8,0,32.8,0
4/3/2004 2:00,20.8,0,68.7,0,19.8,0,19.1,0,14.2,0,12.5,0,33.8,0
4/3/2004 2:15,20.6,0,68.3,0,19.8,0,19,0,14.2,0,12.1,0,35.8,0
4/3/2004 2:30,20.5,0,67.9,0,19.7,0,18.9,0,14.3,0,11.6,0,37.8,0
4/3/2004 2:45,20.3,0,67.9,0,19.7,0,18.9,0,14.3,0,11.2,0,39.8,0
4/3/2004 3:00,20.1,0,67.8,0,19.7,0,18.8,0,14.4,0,10.8,0,41.8,0
4/3/2004 3:15,20,0,67.7,0,19.7,0,18.7,0,14.4,0,10.7,0,43,0
4/3/2004 3:30,19.8,0,67.8,0,19.6,0,18.6,0,14.5,0,10.6,0,44.3,0
4/3/2004 3:45,19.7,0,67.5,0,19.6,0,18.6,0,14.5,0,10.6,0,45.5,0
4/3/2004 4:00,19.6,0,67.6,0,19.6,0,18.5,0,14.6,0,10.5,0,46.8,0
4/3/2004 4:15,19.5,0,67.6,0,19.5,0,18.4,0,14.6,0,10.5,0,46.5,0
4/3/2004 4:30,19.4,0,67.5,0,19.5,0,18.3,0,14.6,0,10.5,0,46.3,0
4/3/2004 4:45,19.3,0,67.6,0,19.5,0,18.3,0,14.7,0,10.6,0,46,0
4/3/2004 5:00,19.1,0,67.4,0,19.4,0,18.2,0,14.7,0,10.6,0,45.8,0
4/3/2004 5:15,19,0,67.5,0,19.3,0,18.1,0,14.8,0,10.4,0,47.5,0
4/3/2004 5:30,18.9,0,67.5,0,19.3,0,18,0,14.6,0,10.1,0,49.3,0
4/3/2004 5:45,18.6,0,66.4,0,19.2,0,18,0,14.1,0,9.9,0,51,0
4/3/2004 6:00,18.6,0,66.5,0,19.1,0,17.9,0,14.2,0,9.7,0,52.8,0
4/3/2004 6:15,18.5,0,66.3,0,19.1,0,17.9,0,13.9,0,10.3,0,49.3,0
4/3/2004 6:30,18.5,0,66.6,0,19.1,0,17.9,0,14,0,10.9,0,45.8,0
4/3/2004 6:45,19.3,0,67.6,0,19.1,0,17.9,0,14,0,11.5,0,42.3,0
4/3/2004 7:00,19.4,0,67.3,0,19.1,0,18,0,14.1,0,12.1,0,38.8,0
4/3/2004 7:15,19.7,0,67.1,0,19.2,0,18.1,0,14.1,0,12.6,0,37.8,0
4/3/2004 7:30,20.4,0,65,0,19.4,0,18.1,0,13.9,0,13.1,0,36.8,0
4/3/2004 7:45,20.4,0,51.6,0,19.6,0,18.2,0,14,0,13.6,0,35.8,0
4/3/2004 8:00,20,0,55.1,0,19.9,0,18.3,0,14,0,14.1,0,34.8,0
4/3/2004 8:15,21.3,0,57.8,0,20.2,0,18.5,0,14,0,14.5,0,33,0
4/3/2004 8:30,20.6,0,44.4,0,20.4,0,18.7,0,14,0,14.9,0,31.3,0
4/3/2004 8:45,21.9,0,58.3,0,20.6,0,19,0,14,0,15.4,0,29.5,0
4/3/2004 9:00,21.6,0,58,0,20.8,0,19.2,0,14,0,15.8,0,27.8,0
4/3/2004 9:15,21.5,0,54.3,0,20.7,0,19.4,0,14.1,0,16.1,0,27.8,0
4/3/2004 9:30,21.7,0,53.3,0,20.6,0,19.5,0,14.1,0,16.4,0,27.8,0
4/3/2004 9:45,21.7,0,53.5,0,20.7,0,19.6,0,14.1,0,16.7,0,27.8,0
4/3/2004 10:00,20.9,0,38.7,0,20.7,0,19.8,0,14.1,0,17,0,27.8,0
4/3/2004 10:15,21,0,36.9,0,20.8,0,19.9,0,14.1,0,17.3,0,28.3,0
4/3/2004 10:30,20.8,0,45.2,0,20.9,0,20.2,0,14.1,0,17.5,0,28.8,0
4/3/2004 10:45,20.9,0,47.8,0,21.1,0,20.4,0,14.2,0,17.8,0,29.3,0
4/3/2004 11:00,21,0,49.3,0,21.3,0,20.7,0,14.2,0,18.1,0,29.8,0
4/3/2004 11:15,20.8,0,40.5,0,21.5,0,20.9,0,14.2,0,18,0,31.8,0
4/3/2004 11:30,20.6,0,38.1,0,21.6,0,21.1,0,14.2,0,17.9,0,33.8,0
4/3/2004 11:45,21.1,0,36,0,21.6,0,21.3,0,14.3,0,17.9,0,35.8,0
4/3/2004 12:00,20.9,0,35,0,21.5,0,21.5,0,14.3,0,17.8,0,37.8,0
4/3/2004 12:15,21.1,0,38.6,0,21.5,0,21.7,0,14.4,0,17.7,0,39.8,0
4/3/2004 12:30,21.4,0,41,0,21.5,0,21.9,0,14.2,0,17.5,0,41.8,0
4/3/2004 12:45,21.9,0,49.9,0,21.5,0,22.1,0,14.1,0,17.4,0,43.8,0
4/3/2004 13:00,22.3,0,55.1,0,21.6,0,22.2,0,14.1,0,17.3,0,45.8,0
4/3/2004 13:15,22.6,0,56.2,0,21.6,0,22.2,0,14.2,0,17.4,0,44.3,0
4/3/2004 13:30,22.8,0,57,0,21.6,0,22.3,0,13.8,0,17.6,0,42.8,0
4/3/2004 13:45,22.9,0,54.4,0,21.7,0,22.2,0,13.8,0,17.7,0,41.3,0
4/3/2004 14:00,22.6,0,49.8,0,21.7,0,22.2,0,13.7,0,17.9,0,39.8,0
4/3/2004 14:15,22.9,0,52.2,0,21.8,0,22.3,0,13.5,0,18,0,40.5,0
4/3/2004 14:30,23,0,52.5,0,21.8,0,22.2,0,13.4,0,18.1,0,41.3,0
4/3/2004 14:45,22.6,0,47.2,0,21.8,0,22.2,0,13.2,0,18.2,0,42,0
4/3/2004 15:00,22.8,0,50.6,0,21.8,0,22.2,0,12.8,0,18.3,0,42.8,0
4/3/2004 15:15,22.9,0,51.7,0,21.7,0,22.2,0,12.1,0,18.2,0,44,0
4/3/2004 15:30,22.9,0,50.2,0,21.7,0,22.1,0,8.6,0,18.1,0,45.3,0
4/3/2004 15:45,22.5,0,47.1,0,21.7,0,22.1,0,8.5,0,18.1,0,46.5,0
4/3/2004 16:00,22.3,0,45.4,0,21.7,0,22.1,0,8.3,0,18,0,47.8,0
4/3/2004 16:15,22.4,0,46.6,0,21.7,0,22.1,0,8.6,0,17.7,0,48.8,0
4/3/2004 16:30,22.5,0,49.3,0,21.7,0,22,0,8.4,0,17.3,0,49.8,0
4/3/2004 16:45,22.5,0,50.3,0,21.6,0,22,0,8.5,0,17,0,50.8,0
4/3/2004 17:00,22.3,0,48,0,21.5,0,21.9,0,8.6,0,16.7,0,51.8,0
4/3/2004 17:15,22,0,46,0,21.4,0,21.8,0,8.3,0,16.4,0,53,0
4/3/2004 17:30,21.9,0,47.5,0,21.3,0,21.8,0,8.1,0,16.2,0,54.3,0
4/3/2004 17:45,21.7,0,46.7,0,21.1,0,21.7,0,8.3,0,15.9,0,55.5,0
4/3/2004 18:00,21.6,0,48.5,0,20.8,0,21.5,0,8.6,0,15.7,0,56.8,0
4/3/2004 18:15,21.7,0,52.5,0,20.5,0,21.4,0,8.6,0,15.5,0,57.8,0
4/3/2004 18:30,21.8,0,53.9,0,20.4,0,21.2,0,8.3,0,15.4,0,58.8,0
4/3/2004 18:45,22,0,61,0,20.3,0,21.2,0,8.1,0,15.2,0,59.8,0
4/3/2004 19:00,22.1,0,61.5,0,20.3,0,21.1,0,8.7,0,15.1,0,60.8,0
4/3/2004 19:15,22.1,0,59.2,0,20.3,0,21,0,8.4,0,14.8,0,60.5,0
4/3/2004 19:30,21.8,0,58.3,0,20.3,0,21,0,8.6,0,14.6,0,60.3,0
4/3/2004 19:45,21.9,0,61.2,0,20.3,0,20.9,0,8.3,0,14.3,0,60,0
4/3/2004 20:00,22,0,62.6,0,20.3,0,20.8,0,8.6,0,14.1,0,59.8,0
4/3/2004 20:15,22,0,62.9,0,20.3,0,20.8,0,8.7,0,13.5,0,62.6,0
4/3/2004 20:30,22,0,64,0,20.2,0,20.7,0,8.8,0,12.9,0,65.3,0
4/3/2004 20:45,22,0,65,0,20.2,0,20.6,0,8.5,0,12.4,0,68.1,0
4/3/2004 21:00,21.9,0,65.2,0,20.1,0,20.5,0,8.7,0,11.8,0,70.8,0
4/3/2004 21:15,21.9,0,66.1,0,20.1,0,20.5,0,8.9,0,11.7,0,68.8,0
4/3/2004 21:30,21.9,0,64.1,0,20,0,20.4,0,8.1,0,11.7,0,66.8,0
4/3/2004 21:45,21.9,0,66.2,0,20,0,20.3,0,8.9,0,11.6,0,64.8,0
4/3/2004 22:00,21.8,0,65.9,0,19.9,0,20.2,0,8.9,0,11.6,0,62.8,0
4/3/2004 22:15,21.6,0,65.8,0,19.9,0,20.2,0,8.2,0,11.3,0,63,0
4/3/2004 22:30,21.4,0,66.8,0,19.8,0,20.1,0,8.6,0,11,0,63.3,0
4/3/2004 22:45,20.9,0,67.6,0,19.8,0,20.1,0,8.5,0,10.7,0,63.5,0
4/3/2004 23:00,20.8,0,67.6,0,19.8,0,20,0,8.2,0,10.4,0,63.8,0
4/3/2004 23:15,22,0,66.7,0,19.8,0,19.9,0,8.3,0,10.4,0,64.8,0
4/3/2004 23:30,23.4,0,60.4,0,19.8,0,19.8,0,8.6,0,10.3,0,65.8,0
4/3/2004 23:45,23.4,0,58.9,0,19.7,0,19.8,0,8.4,0,10.3,0,66.8,0
4/4/2004 0:00,23.3,0,58.7,0,19.7,0,19.7,0,8.8,0,10.3,0,67.8,0
4/4/2004 0:15,23.3,0,58,0,19.7,0,19.6,0,8.6,0,10.2,0,68.1,0
4/4/2004 0:30,23,0,56.1,0,19.7,0,19.6,0,9.3,0,10.1,0,68.3,0
4/4/2004 0:45,22.9,0,56.8,0,19.7,0,19.5,0,9.1,0,10,0,68.6,0
4/4/2004 1:00,22.8,0,56.6,0,19.7,0,19.4,0,9.2,0,9.9,0,68.8,0
4/4/2004 1:15,22.7,0,56.5,0,19.7,0,19.4,0,8.8,0,9.8,0,69.6,0
4/4/2004 1:30,22.5,0,56.3,0,19.6,0,19.3,0,9.5,0,9.7,0,70.3,0
4/4/2004 1:45,22.4,0,56.2,0,19.6,0,19.2,0,9.5,0,9.6,0,71.1,0
4/4/2004 2:00,22.2,0,56.1,0,19.6,0,19.2,0,9.3,0,9.5,0,71.8,0
4/4/2004 2:15,22.1,0,56.2,0,19.5,0,19.1,0,9,0,9.5,0,71.6,0
4/4/2004 2:30,21.9,0,56.1,0,19.5,0,19,0,9.1,0,9.5,0,71.3,0
4/4/2004 2:45,21.8,0,56.1,0,19.5,0,18.9,0,8.6,0,9.5,0,71.1,0
4/4/2004 3:00,21.6,0,56.2,0,19.5,0,18.9,0,7.8,0,9.5,0,70.8,0
4/4/2004 3:15,21.5,0,56,0,19.4,0,18.8,0,8.9,0,9.5,0,70.6,0
4/4/2004 3:30,21.4,0,55.9,0,19.4,0,18.7,0,8.5,0,9.4,0,70.3,0
4/4/2004 3:45,21.2,0,55.9,0,19.3,0,18.6,0,7.9,0,9.4,0,70.1,0
4/4/2004 4:00,21.1,0,55.9,0,19.3,0,18.6,0,8.2,0,9.4,0,69.8,0
4/4/2004 4:15,20.9,0,55.9,0,19.3,0,18.5,0,7.8,0,9.3,0,69.8,0
4/4/2004 4:30,20.8,0,55.9,0,19.2,0,18.4,0,8.2,0,9.3,0,69.8,0
4/4/2004 4:45,20.7,0,55.8,0,19.2,0,18.4,0,7.7,0,9.2,0,69.8,0
4/4/2004 5:00,20.6,0,55.7,0,19.1,0,18.3,0,8.3,0,9.2,0,69.8,0
4/4/2004 5:15,20.5,0,55.7,0,19,0,18.2,0,6.9,0,9.1,0,69.6,0
4/4/2004 5:30,20.4,0,55.7,0,18.9,0,18.1,0,6.8,0,9,0,69.3,0
4/4/2004 5:45,20.3,0,55.7,0,18.9,0,18.1,0,7,0,8.9,0,69.1,0
4/4/2004 6:00,20.2,0,55.7,0,18.8,0,18,0,7,0,8.8,0,68.8,0
4/4/2004 6:15,20,0,55.7,0,18.8,0,17.9,0,6.6,0,8.8,0,69.1,0
4/4/2004 6:30,19.9,0,55.7,0,18.7,0,17.8,0,10.2,0,8.7,0,69.3,0
4/4/2004 6:45,19.8,0,55.7,0,18.7,0,17.8,0,10.2,0,8.7,0,69.6,0
4/4/2004 7:00,19.8,0,55.7,0,18.6,0,17.7,0,10.2,0,8.7,0,69.8,0
4/4/2004 7:15,19.6,0,56.2,0,18.5,0,17.6,0,10.2,0,8.8,0,69.1,0
4/4/2004 7:30,19.6,0,56.3,0,18.4,0,17.5,0,10.2,0,8.8,0,68.3,0
4/4/2004 7:45,20,0,58.5,0,18.3,0,17.5,0,10.2,0,8.9,0,67.6,0
4/4/2004 8:00,20.3,0,59.4,0,18.1,0,17.5,0,10.2,0,9,0,66.8,0
4/4/2004 8:15,20.5,0,59.8,0,18,0,17.4,0,10.2,0,9,0,67.3,0
4/4/2004 8:30,20.8,0,60.3,0,17.9,0,17.3,0,10.2,0,9,0,67.8,0
4/4/2004 8:45,21.1,0,60.2,0,17.8,0,17.3,0,10.2,0,9.1,0,68.3,0
4/4/2004 9:00,21.3,0,60.3,0,17.7,0,17.3,0,10.2,0,9.1,0,68.8,0
4/4/2004 9:15,21.4,0,62,0,17.6,0,17.2,0,10.2,0,9.1,0,68.8,0
4/4/2004 9:30,21.6,0,62.1,0,17.5,0,17.2,0,10.2,0,9,0,68.8,0
4/4/2004 9:45,21.8,0,61.8,0,17.4,0,17.2,0,10.2,0,9,0,68.8,0
4/4/2004 10:00,21.7,0,59.3,0,17.4,0,17.2,0,10.2,0,9,0,68.8,0
4/4/2004 10:15,22,0,58.5,0,17.4,0,17.2,0,10.2,0,9,0,68.8,0
4/4/2004 10:30,22.2,0,59.4,0,17.4,0,17.2,0,10.2,0,8.9,0,68.8,0
4/4/2004 10:45,22.3,0,59.9,0,17.3,0,17.1,0,10.2,0,8.9,0,68.8,0
4/4/2004 11:00,22.4,0,59.2,0,17.3,0,17.1,0,10.2,0,8.9,0,68.8,0
4/4/2004 11:15,24.5,0,54,0,17.3,0,17.1,0,10.2,0,8.7,0,70.3,0
4/4/2004 11:30,26.1,0,49.4,0,17.2,0,17.1,0,10.2,0,8.5,0,71.8,0
4/4/2004 11:45,26.7,0,49.2,0,17.2,0,17.1,0,10.2,0,8.3,0,73.3,0
4/4/2004 12:00,26.3,0,51.6,0,17.1,0,17,0,10.2,0,8.1,0,74.8,0
4/4/2004 12:15,27,0,52,0,17.1,0,17,0,10.2,0,8,0,77.6,0
4/4/2004 12:30,26.3,0,54.1,0,17,0,17,0,10.2,0,7.9,0,80.3,0
4/4/2004 12:45,25.7,0,55.7,0,16.9,0,16.9,0,10.2,0,7.8,0,83.1,0
4/4/2004 13:00,24.7,0,52.7,0,16.9,0,16.9,0,10.2,0,7.7,0,85.8,0
4/4/2004 13:15,24.1,0,53.6,0,16.8,0,16.9,0,10.2,0,7.5,0,86.1,0
4/4/2004 13:30,23.8,0,54.1,0,16.7,0,16.8,0,10.2,0,7.3,0,86.3,0
4/4/2004 13:45,23.3,0,55,0,16.7,0,16.7,0,10.2,0,7.2,0,86.6,0
4/4/2004 14:00,22.9,0,53.5,0,16.6,0,16.7,0,10.2,0,7,0,86.8,0
4/4/2004 14:15,21.8,0,51.7,0,16.5,0,16.6,0,10.2,0,6.9,0,87.1,0
4/4/2004 14:30,21.7,0,51.1,0,16.4,0,16.6,0,10.2,0,6.9,0,87.3,0
4/4/2004 14:45,20.6,0,52.1,0,16.4,0,16.5,0,10.2,0,6.8,0,87.6,0
4/4/2004 15:00,20.6,0,53,0,16.4,0,16.5,0,10.2,0,6.8,0,87.8,0
4/4/2004 15:15,21.5,0,59.1,0,16.3,0,16.4,0,10.2,0,6.7,0,87.3,0
4/4/2004 15:30,22,0,60.1,0,16.3,0,16.4,0,10.2,0,6.7,0,86.8,0
4/4/2004 15:45,22.3,0,60.1,0,16.2,0,16.3,0,10.2,0,6.6,0,86.3,0
4/4/2004 16:00,22.5,0,60.5,0,16.1,0,16.2,0,10.2,0,6.6,0,85.8,0
4/4/2004 16:15,22.7,0,60.1,0,16,0,16.1,0,10.2,0,6.5,0,86.6,0
4/4/2004 16:30,22.8,0,59.8,0,15.9,0,16.1,0,10.2,0,6.4,0,87.3,0
4/4/2004 16:45,22.7,0,58.1,0,15.9,0,16,0,10.2,0,6.3,0,88.1,0
4/4/2004 17:00,22.6,0,56.6,0,15.8,0,16,0,10.2,0,6.2,0,88.8,0
4/4/2004 17:15,22.9,0,56.9,0,15.9,0,16,0,10.2,0,6,0,89.1,0
4/4/2004 17:30,23.2,0,59.1,0,15.9,0,15.9,0,10.2,0,5.9,0,89.3,0
4/4/2004 17:45,23.4,0,61.5,0,15.8,0,15.8,0,10.2,0,5.7,0,89.6,0
4/4/2004 18:00,24.2,0,63.4,0,15.7,0,15.8,0,10.2,0,5.6,0,89.8,0
4/4/2004 18:15,23.6,0,69.1,0,15.7,0,15.7,0,10.2,0,5.3,0,89.8,0
4/4/2004 18:30,23.3,0,67.4,0,15.7,0,15.7,0,10.2,0,5,0,89.8,0
4/4/2004 18:45,23.2,0,73.9,0,15.7,0,15.6,0,10.2,0,4.8,0,89.8,0
4/4/2004 19:00,23.2,0,75.8,0,15.6,0,15.5,0,10.2,0,4.5,0,89.8,0
4/4/2004 19:15,23,0,72.2,0,15.5,0,15.5,0,10.2,0,4.5,0,90.1,0
4/4/2004 19:30,22.9,0,68.6,0,15.5,0,15.4,0,10.2,0,4.4,0,90.3,0
4/4/2004 19:45,22.9,0,66.8,0,15.5,0,15.4,0,10.2,0,4.4,0,90.6,0
4/4/2004 20:00,22.7,0,66.2,0,15.4,0,15.4,0,10.2,0,4.4,0,90.8,0
4/4/2004 20:15,22.5,0,65.5,0,15.3,0,15.4,0,10.2,0,4.3,0,91.1,0
4/4/2004 20:30,22.4,0,65.6,0,15.3,0,15.3,0,10.2,0,4.2,0,91.3,0
4/4/2004 20:45,22,0,65.6,0,15.3,0,15.3,0,10.2,0,4.2,0,91.6,0
4/4/2004 21:00,22,0,66.4,0,15.3,0,15.3,0,10.2,0,4.1,0,91.8,0
4/4/2004 21:15,21.8,0,64.5,0,15.2,0,15.3,0,10.2,0,3.9,0,91.8,0
4/4/2004 21:30,21.6,0,63.6,0,15.1,0,15.2,0,10.2,0,3.8,0,91.8,0
4/4/2004 21:45,21.4,0,63,0,15.1,0,15.1,0,10.2,0,3.6,0,91.8,0
4/4/2004 22:00,21.3,0,62.8,0,15,0,15,0,10.2,0,3.5,0,91.8,0
4/4/2004 22:15,21.1,0,63.1,0,14.9,0,14.9,0,10.2,0,3.4,0,92.1,0